Voltar ao catálogo

MOLNIYA 1-87

AtivoComunicaçõesHEO
NORAD 22949·PAYLOAD·🇷🇺 Russia

Lançado Dec 22, 1993 de Plesetsk Cosmodrome

Loading…

Próximas Passagens (próximas 24 horas)

TLE

AtualizadoSource: Space-Track

Época: Sep 12, 2026, 21:13 UTC

1 22949U 93079A   26255.88453774  .00000086  00000-0  00000-0 0  9994
2 22949  64.8378 274.0086 6746913 268.2473  19.7253  2.02848527106348

Acompanhe MOLNIYA 1-87 em tempo real com AllMySat

Download on the App Store